| time (UTC) | temp C | wind direction | speed KPH | gust KPH | rain 1hr cm | rain 24hr cm | rain mn cm | humidity % | barometer mb |
| 20260510045128 | 11 | 149 | 3.2 | 4.8 | 0.00 | 0.00 | 0.00 | 85 | 1013.6 |
| 20260510044625 | 11 | 198 | 4.8 | 6.4 | 0.00 | 0.00 | 0.00 | 85 | 1013.6 |
| 20260510044122 | 11 | 145 | 4.8 | 14.5 | 0.00 | 0.00 | 0.00 | 84 | 1013.7 |
| 20260510043618 | 11 | 197 | 4.8 | 6.4 | 0.00 | 0.00 | 0.00 | 84 | 1013.4 |
| 20260510043114 | 11 | 126 | 3.2 | 16.1 | 0.00 | 0.00 | 0.00 | 84 | 1013.7 |
| 20260510042612 | 11 | 141 | 4.8 | 12.9 | 0.00 | 0.00 | 0.00 | 84 | 1013.7 |
| 20260510042108 | 11 | 197 | 3.2 | 6.4 | 0.00 | 0.00 | 0.00 | 84 | 1013.6 |
| 20260510041606 | 11 | 164 | 6.4 | 9.7 | 0.00 | 0.00 | 0.00 | 84 | 1013.6 |
| 20260510041103 | 11 | 152 | 6.4 | 9.7 | 0.00 | 0.00 | 0.00 | 83 | 1013.4 |
| 20260510040559 | 11 | 190 | 3.2 | 9.7 | 0.00 | 0.00 | 0.00 | 83 | 1013.4 |
| 20260510040055 | 11 | 195 | 3.2 | 4.8 | 0.00 | 0.00 | 0.00 | 83 | 1013.4 |
| 20260510035552 | 11 | 219 | 3.2 | 6.4 | 0.00 | 0.00 | 0.00 | 83 | 1013.3 |
| 20260510035051 | 11 | 46 | 3.2 | 9.7 | 0.00 | 0.00 | 0.00 | 83 | 1013.3 |
| 20260510034550 | 12 | 218 | 4.8 | 6.4 | 0.00 | 0.00 | 0.00 | 82 | 1013.3 |
| 20260510034046 | 12 | 235 | 3.2 | 9.7 | 0.00 | 0.00 | 0.00 | 82 | 1013.2 |
| 20260510033542 | 12 | 200 | 3.2 | 4.8 | 0.00 | 0.00 | 0.00 | 82 | 1013.1 |
| 20260510033041 | 12 | 125 | 6.4 | 6.4 | 0.00 | 0.00 | 0.00 | 81 | 1013.2 |
| 20260510032537 | 11 | 117 | 8.0 | 20.9 | 0.00 | 0.00 | 0.00 | 81 | 1013.0 |
| 20260510032032 | 11 | 252 | 3.2 | 4.8 | 0.00 | 0.00 | 0.00 | 82 | 1013.2 |
| 20260510031527 | 11 | 200 | 3.2 | 6.4 | 0.00 | 0.00 | 0.00 | 82 | 1013.2 |
| 20260510031023 | 12 | 196 | 3.2 | 4.8 | 0.00 | 0.00 | 0.00 | 81 | 1013.1 |
| 20260510030519 | 11 | 113 | 3.2 | 4.8 | 0.00 | 0.00 | 0.00 | 82 | 1013.1 |
| 20260510030016 | 12 | 233 | 3.2 | 6.4 | 0.00 | 0.00 | 0.00 | 81 | 1013.0 |
| 20260510025513 | 12 | 181 | 3.2 | 11.3 | 0.00 | 0.00 | 0.00 | 81 | 1013.2 |
| 20260510025012 | 12 | 197 | 3.2 | 3.2 | 0.00 | 0.00 | 0.00 | 81 | 1013.2 |
| 20260510024508 | 12 | 189 | 1.6 | 6.4 | 0.00 | 0.00 | 0.00 | 80 | 1012.9 |
| 20260510024004 | 12 | 149 | 3.2 | 6.4 | 0.00 | 0.00 | 0.00 | 80 | 1013.2 |
| 20260510023500 | 12 | 240 | 3.2 | 6.4 | 0.00 | 0.00 | 0.00 | 80 | 1013.2 |
| 20260510022957 | 12 | 196 | 4.8 | 4.8 | 0.00 | 0.00 | 0.00 | 81 | 1013.1 |
| 20260510022456 | 12 | 169 | 6.4 | 11.3 | 0.00 | 0.00 | 0.00 | 79 | 1012.8 |
| 20260510021955 | 12 | 190 | 4.8 | 9.7 | 0.00 | 0.00 | 0.00 | 79 | 1013.1 |
| 20260510021453 | 12 | 250 | 8.0 | 11.3 | 0.00 | 0.00 | 0.00 | 79 | 1012.9 |
| 20260510020950 | 12 | 170 | 4.8 | 22.5 | 0.00 | 0.00 | 0.00 | 80 | 1012.9 |
| 20260510020445 | 12 | 175 | 3.2 | 9.7 | 0.00 | 0.00 | 0.00 | 80 | 1012.9 |
| 20260510015940 | 12 | 141 | 1.6 | 4.8 | 0.00 | 0.00 | 0.00 | 80 | 1012.7 |
| 20260510015436 | 12 | 189 | 4.8 | 4.8 | 0.00 | 0.00 | 0.00 | 79 | 1012.9 |
| 20260510014931 | 11 | 219 | 0.0 | 4.8 | 0.00 | 0.00 | 0.00 | 81 | 1012.6 |
| 20260510014429 | 12 | 191 | 3.2 | 4.8 | 0.00 | 0.00 | 0.00 | 79 | 1012.6 |
| 20260510013926 | 12 | 199 | 4.8 | 6.4 | 0.00 | 0.00 | 0.00 | 78 | 1012.5 |
| 20260510013420 | 12 | 169 | 0.0 | 4.8 | 0.00 | 0.00 | 0.00 | 80 | 1012.5 |
| 20260510012916 | 12 | 134 | 3.2 | 4.8 | 0.00 | 0.00 | 0.00 | 80 | 1012.6 |
| 20260510012411 | 12 | 132 | 3.2 | 3.2 | 0.00 | 0.00 | 0.00 | 79 | 1012.6 |
| 20260510011906 | 12 | 192 | 1.6 | 3.2 | 0.00 | 0.00 | 0.00 | 80 | 1012.4 |
| 20260510011401 | 12 | 177 | 1.6 | 6.4 | 0.00 | 0.00 | 0.00 | 78 | 1012.3 |
| 20260510010858 | 12 | 156 | 1.6 | 4.8 | 0.00 | 0.00 | 0.00 | 79 | 1012.4 |
| 20260510010355 | 12 | 178 | 3.2 | 4.8 | 0.00 | 0.00 | 0.00 | 78 | 1012.0 |
| 20260510005851 | 12 | 191 | 1.6 | 3.2 | 0.00 | 0.00 | 0.00 | 78 | 1012.0 |
| 20260510005348 | 12 | 203 | 0.0 | 3.2 | 0.00 | 0.00 | 0.00 | 79 | 1012.0 |
| 20260510004845 | 12 | 178 | 3.2 | 3.2 | 0.00 | 0.00 | 0.00 | 78 | 1011.8 |
| 20260510004343 | 12 | 165 | 1.6 | 3.2 | 0.00 | 0.00 | 0.00 | 77 | 1011.8 |
| 20260510003841 | 12 | 203 | 3.2 | 6.4 | 0.00 | 0.00 | 0.00 | 78 | 1011.6 |
| 20260510003337 | 12 | 187 | 3.2 | 9.7 | 0.00 | 0.00 | 0.00 | 74 | 1011.5 |
| 20260510002836 | 12 | 130 | 1.6 | 4.8 | 0.00 | 0.00 | 0.00 | 77 | 1011.5 |
| 20260510002333 | 12 | 200 | 4.8 | 9.7 | 0.00 | 0.00 | 0.00 | 75 | 1011.6 |
| 20260510001830 | 13 | 134 | 4.8 | 4.8 | 0.00 | 0.00 | 0.00 | 74 | 1011.4 |
| 20260510001328 | 13 | 156 | 1.6 | 3.2 | 0.00 | 0.00 | 0.00 | 76 | 1011.6 |
| 20260510000824 | 13 | 272 | 6.4 | 11.3 | 0.00 | 0.00 | 0.00 | 74 | 1011.5 |
| 20260510000321 | 13 | 208 | 3.2 | 14.5 | 0.00 | 0.00 | 0.00 | 74 | 1011.5 |
| 20260509235818 | 13 | 192 | 1.6 | 9.7 | 0.00 | 0.00 | 0.00 | 74 | 1011.5 |
| 20260509235315 | 13 | 275 | 0.0 | 4.8 | 0.00 | 0.00 | 0.00 | 73 | 1011.3 |
| 20260509234811 | 13 | 201 | 3.2 | 6.4 | 0.00 | 0.00 | 0.00 | 74 | 1011.1 |
| 20260509234307 | 13 | 182 | 3.2 | 4.8 | 0.00 | 0.00 | 0.00 | 74 | 1011.3 |
| 20260509233806 | 13 | 207 | 6.4 | 11.3 | 0.00 | 0.00 | 0.00 | 74 | 1011.2 |
| 20260509233303 | 13 | 182 | 6.4 | 9.7 | 0.00 | 0.00 | 0.00 | 72 | 1011.2 |
| 20260509232759 | 14 | 191 | 3.2 | 9.7 | 0.00 | 0.00 | 0.00 | 71 | 1011.2 |
| 20260509232257 | 14 | 176 | 4.8 | 6.4 | 0.00 | 0.00 | 0.00 | 72 | 1011.2 |
| 20260509231753 | 14 | 273 | 3.2 | 11.3 | 0.00 | 0.00 | 0.00 | 71 | 1011.1 |
| 20260509231250 | 14 | 233 | 6.4 | 9.7 | 0.00 | 0.00 | 0.00 | 69 | 1011.3 |
| 20260509230747 | 14 | 171 | 1.6 | 4.8 | 0.00 | 0.00 | 0.00 | 70 | 1011.4 |
| 20260509230244 | 14 | 167 | 8.0 | 11.3 | 0.00 | 0.00 | 0.00 | 70 | 1011.4 |
| 20260509225739 | 14 | 212 | 4.8 | 9.7 | 0.00 | 0.00 | 0.00 | 70 | 1011.4 |
| 20260509225236 | 14 | 158 | 6.4 | 17.7 | 0.00 | 0.00 | 0.00 | 68 | 1011.4 |
| 20260509224731 | 15 | 214 | 4.8 | 11.3 | 0.00 | 0.00 | 0.00 | 68 | 1011.3 |
| 20260509224229 | 15 | 185 | 9.7 | 12.9 | 0.00 | 0.00 | 0.00 | 67 | 1011.4 |
| 20260509223725 | 14 | 182 | 4.8 | 6.4 | 0.00 | 0.00 | 0.00 | 68 | 1011.4 |
| 20260509223223 | 14 | 198 | 3.2 | 6.4 | 0.00 | 0.00 | 0.00 | 67 | 1011.4 |
| 20260509222719 | 14 | 140 | 3.2 | 4.8 | 0.00 | 0.00 | 0.00 | 67 | 1011.6 |
| 20260509222214 | 15 | 132 | 3.2 | 14.5 | 0.00 | 0.00 | 0.00 | 67 | 1011.6 |
| 20260509221711 | 15 | 59 | 3.2 | 4.8 | 0.00 | 0.00 | 0.00 | 67 | 1011.7 |
| 20260509221207 | 15 | 194 | 3.2 | 6.4 | 0.00 | 0.00 | 0.00 | 68 | 1011.5 |
| 20260509220703 | 15 | 188 | 4.8 | 11.3 | 0.00 | 0.00 | 0.00 | 66 | 1011.6 |
| 20260509220159 | 15 | 188 | 9.7 | 11.3 | 0.00 | 0.00 | 0.00 | 68 | 1011.3 |
| 20260509215655 | 15 | 249 | 4.8 | 9.7 | 0.00 | 0.00 | 0.00 | 70 | 1011.4 |
| 20260509215153 | 15 | 140 | 3.2 | 11.3 | 0.00 | 0.00 | 0.00 | 66 | 1011.8 |
| 20260509214650 | 15 | 197 | 1.6 | 6.4 | 0.00 | 0.00 | 0.00 | 70 | 1011.5 |
| 20260509214146 | 15 | 146 | 1.6 | 4.8 | 0.00 | 0.00 | 0.00 | 68 | 1011.3 |
| 20260509213643 | 15 | 28 | 3.2 | 9.7 | 0.00 | 0.00 | 0.00 | 65 | 1011.3 |
| 20260509213138 | 15 | 240 | 1.6 | 9.7 | 0.00 | 0.00 | 0.00 | 64 | 1011.5 |
| 20260509212636 | 15 | 158 | 3.2 | 11.3 | 0.00 | 0.00 | 0.00 | 66 | 1011.4 |
| 20260509212133 | 15 | 157 | 3.2 | 6.4 | 0.00 | 0.00 | 0.00 | 69 | 1011.6 |
| 20260509211629 | 15 | 228 | 14.5 | 20.9 | 0.00 | 0.00 | 0.00 | 65 | 1011.6 |
| 20260509211125 | 15 | 209 | 0.0 | 6.4 | 0.00 | 0.00 | 0.00 | 68 | 1011.3 |
| 20260509210623 | 15 | 216 | 3.2 | 6.4 | 0.00 | 0.00 | 0.00 | 69 | 1011.4 |
| 20260509210120 | 15 | 67 | 4.8 | 6.4 | 0.00 | 0.00 | 0.00 | 65 | 1011.3 |
| 20260509205620 | 15 | 119 | 8.0 | 12.9 | 0.00 | 0.00 | 0.00 | 63 | 1011.2 |
| 20260509205115 | 15 | 229 | 1.6 | 3.2 | 0.00 | 0.00 | 0.00 | 66 | 1011.5 |
| 20260509204611 | 15 | 110 | 1.6 | 12.9 | 0.00 | 0.00 | 0.00 | 66 | 1011.4 |
| 20260509204108 | 15 | 235 | 8.0 | 16.1 | 0.00 | 0.00 | 0.00 | 67 | 1011.4 |
| 20260509203604 | 15 | 191 | 4.8 | 27.4 | 0.00 | 0.00 | 0.00 | 65 | 1011.4 |
| 20260509203103 | 16 | 199 | 1.6 | 9.7 | 0.00 | 0.00 | 0.00 | 64 | 1011.6 |
| 20260509202556 | 16 | 95 | 3.2 | 12.9 | 0.00 | 0.00 | 0.00 | 64 | 1011.4 |
| 20260509202052 | 17 | 299 | 3.2 | 12.9 | 0.00 | 0.00 | 0.00 | 62 | 1011.4 |
| 20260509201547 | 16 | 185 | 1.6 | 6.4 | 0.00 | 0.00 | 0.00 | 66 | 1011.5 |
| 20260509201045 | 16 | 227 | 3.2 | 11.3 | 0.00 | 0.00 | 0.00 | 67 | 1011.6 |
| 20260509200544 | 16 | 265 | 1.6 | 9.7 | 0.00 | 0.00 | 0.00 | 63 | 1011.6 |
| 20260509200041 | 16 | 190 | 6.4 | 16.1 | 0.00 | 0.00 | 0.00 | 66 | 1011.6 |
| 20260509195537 | 16 | 176 | 3.2 | 9.7 | 0.00 | 0.00 | 0.00 | 69 | 1011.5 |
| 20260509195032 | 15 | 120 | 6.4 | 6.4 | 0.00 | 0.00 | 0.00 | 64 | 1011.5 |
| 20260509194527 | 15 | 147 | 6.4 | 9.7 | 0.00 | 0.00 | 0.00 | 62 | 1011.5 |
| 20260509194025 | 15 | 77 | 4.8 | 6.4 | 0.00 | 0.00 | 0.00 | 62 | 1011.5 |
| 20260509193524 | 15 | 52 | 3.2 | 4.8 | 0.00 | 0.00 | 0.00 | 64 | 1011.5 |
| 20260509193021 | 15 | 154 | 4.8 | 4.8 | 0.00 | 0.00 | 0.00 | 64 | 1011.5 |
| 20260509192517 | 15 | 274 | 1.6 | 6.4 | 0.00 | 0.00 | 0.00 | 67 | 1011.5 |
| 20260509192012 | 15 | 144 | 3.2 | 4.8 | 0.00 | 0.00 | 0.00 | 64 | 1011.5 |
| 20260509191507 | 15 | 211 | 4.8 | 9.7 | 0.00 | 0.00 | 0.00 | 67 | 1011.5 |
| 20260509191003 | 15 | 150 | 4.8 | 4.8 | 0.00 | 0.00 | 0.00 | 65 | 1011.7 |
| 20260509190500 | 15 | 215 | 1.6 | 3.2 | 0.00 | 0.00 | 0.00 | 64 | 1011.5 |
| 20260509185958 | 15 | 129 | 3.2 | 3.2 | 0.00 | 0.00 | 0.00 | 66 | 1011.5 |
| 20260509185455 | 15 | 236 | 1.6 | 3.2 | 0.00 | 0.00 | 0.00 | 66 | 1011.5 |
| 20260509184952 | 15 | 171 | 0.0 | 1.6 | 0.00 | 0.00 | 0.00 | 66 | 1011.6 |
| 20260509184451 | 15 | 105 | 8.0 | 12.9 | 0.00 | 0.00 | 0.00 | 60 | 1011.5 |
| 20260509183947 | 15 | 117 | 1.6 | 3.2 | 0.00 | 0.00 | 0.00 | 63 | 1011.3 |
| 20260509183446 | 15 | 68 | 1.6 | 1.6 | 0.00 | 0.00 | 0.00 | 57 | 1011.2 |
| 20260509182943 | 15 | 158 | 8.0 | 11.3 | 0.00 | 0.00 | 0.00 | 64 | 1011.4 |
| 20260509182439 | 15 | 239 | 1.6 | 6.4 | 0.00 | 0.00 | 0.00 | 64 | 1011.4 |
| 20260509181937 | 15 | 75 | 4.8 | 6.4 | 0.00 | 0.00 | 0.00 | 61 | 1011.4 |
| 20260509181435 | 15 | 160 | 6.4 | 6.4 | 0.00 | 0.00 | 0.00 | 62 | 1011.4 |
| 20260509180932 | 14 | 198 | 1.6 | 4.8 | 0.00 | 0.00 | 0.00 | 67 | 1011.2 |
| 20260509180427 | 14 | 169 | 6.4 | 11.3 | 0.00 | 0.00 | 0.00 | 67 | 1011.5 |
| 20260509175924 | 14 | 260 | 3.2 | 9.7 | 0.00 | 0.00 | 0.00 | 62 | 1011.4 |
| 20260509175421 | 14 | 187 | 6.4 | 9.7 | 0.00 | 0.00 | 0.00 | 64 | 1011.7 |
| 20260509174917 | 13 | 176 | 6.4 | 12.9 | 0.00 | 0.00 | 0.00 | 63 | 1011.6 |
| 20260509174413 | 13 | 158 | 9.7 | 14.5 | 0.00 | 0.00 | 0.00 | 66 | 1011.6 |
| 20260509173909 | 14 | 185 | 11.3 | 14.5 | 0.00 | 0.00 | 0.00 | 65 | 1011.6 |
| 20260509173409 | 15 | 167 | 3.2 | 9.7 | 0.00 | 0.00 | 0.00 | 69 | 1011.5 |
| 20260509172906 | 13 | 162 | 6.4 | 6.4 | 0.00 | 0.00 | 0.00 | 67 | 1011.4 |
| 20260509172403 | 13 | 178 | 4.8 | 6.4 | 0.00 | 0.00 | 0.00 | 68 | 1011.7 |
| 20260509171858 | 13 | 184 | 6.4 | 9.7 | 0.00 | 0.00 | 0.00 | 72 | 1011.6 |
| 20260509171354 | 12 | 158 | 3.2 | 11.3 | 0.00 | 0.00 | 0.00 | 74 | 1011.7 |
| 20260509170851 | 12 | 192 | 6.4 | 6.4 | 0.00 | 0.00 | 0.00 | 68 | 1011.7 |
| 20260509170348 | 12 | 162 | 3.2 | 6.4 | 0.00 | 0.00 | 0.00 | 72 | 1011.7 |
| 20260509165847 | 12 | 158 | 6.4 | 9.7 | 0.00 | 0.00 | 0.00 | 71 | 1011.7 |
| 20260509165342 | 11 | 160 | 6.4 | 6.4 | 0.00 | 0.00 | 0.00 | 74 | 1011.9 |
| 20260509164838 | 11 | 136 | 3.2 | 6.4 | 0.00 | 0.00 | 0.00 | 77 | 1011.8 |
| 20260509164335 | 11 | 158 | 4.8 | 6.4 | 0.00 | 0.00 | 0.00 | 76 | 1011.8 |
| 20260509163832 | 11 | 199 | 3.2 | 6.4 | 0.00 | 0.00 | 0.00 | 74 | 1011.9 |
| 20260509163328 | 11 | 142 | 3.2 | 9.7 | 0.00 | 0.00 | 0.00 | 73 | 1011.9 |
| 20260509162827 | 11 | 150 | 3.2 | 4.8 | 0.00 | 0.00 | 0.00 | 79 | 1011.7 |
| 20260509162320 | 11 | 193 | 8.0 | 12.9 | 0.00 | 0.00 | 0.00 | 74 | 1011.9 |
| 20260509161817 | 11 | 210 | 4.8 | 4.8 | 0.00 | 0.00 | 0.00 | 73 | 1011.9 |
| 20260509161314 | 11 | 216 | 3.2 | 16.1 | 0.00 | 0.00 | 0.00 | 71 | 1012.1 |
| 20260509160809 | 11 | 135 | 1.6 | 4.8 | 0.00 | 0.00 | 0.00 | 77 | 1012.0 |
| 20260509160305 | 12 | 141 | 6.4 | 9.7 | 0.00 | 0.00 | 0.00 | 77 | 1012.0 |
| 20260509155801 | 12 | 155 | 3.2 | 9.7 | 0.00 | 0.00 | 0.00 | 77 | 1012.0 |
| 20260509155257 | 12 | 154 | 4.8 | 9.7 | 0.00 | 0.00 | 0.00 | 75 | 1012.3 |
| 20260509154753 | 12 | 202 | 1.6 | 4.8 | 0.00 | 0.00 | 0.00 | 79 | 1012.1 |
| 20260509154250 | 11 | 188 | 4.8 | 9.7 | 0.00 | 0.00 | 0.00 | 75 | 1012.3 |
| 20260509153747 | 11 | 204 | 6.4 | 11.3 | 0.00 | 0.00 | 0.00 | 79 | 1012.1 |
| 20260509153243 | 11 | 199 | 3.2 | 6.4 | 0.00 | 0.00 | 0.00 | 79 | 1012.4 |
| 20260509152740 | 11 | 163 | 3.2 | 4.8 | 0.00 | 0.00 | 0.00 | 79 | 1012.5 |
| 20260509152237 | 11 | 215 | 1.6 | 9.7 | 0.00 | 0.00 | 0.00 | 80 | 1012.4 |
| 20260509151733 | 11 | 181 | 6.4 | 11.3 | 0.00 | 0.00 | 0.00 | 81 | 1012.3 |
| 20260509151229 | 11 | 163 | 3.2 | 6.4 | 0.00 | 0.00 | 0.00 | 83 | 1012.1 |
| 20260509150728 | 11 | 175 | 4.8 | 9.7 | 0.00 | 0.00 | 0.00 | 80 | 1012.4 |
| 20260509150226 | 11 | 145 | 3.2 | 4.8 | 0.00 | 0.00 | 0.00 | 82 | 1012.4 |
| 20260509145722 | 11 | 187 | 3.2 | 6.4 | 0.00 | 0.00 | 0.00 | 80 | 1012.5 |
| 20260509145217 | 11 | 185 | 3.2 | 4.8 | 0.00 | 0.00 | 0.00 | 83 | 1012.3 |
| 20260509144713 | 10 | 158 | 1.6 | 3.2 | 0.00 | 0.00 | 0.00 | 86 | 1012.3 |
| 20260509144211 | 10 | 204 | 3.2 | 6.4 | 0.00 | 0.00 | 0.00 | 85 | 1012.4 |
| 20260509143708 | 10 | 145 | 1.6 | 3.2 | 0.00 | 0.00 | 0.00 | 84 | 1012.3 |
| 20260509143205 | 10 | 203 | 3.2 | 3.2 | 0.00 | 0.00 | 0.00 | 85 | 1012.3 |
| 20260509142700 | 10 | 169 | 1.6 | 4.8 | 0.00 | 0.00 | 0.00 | 85 | 1012.1 |
| 20260509142158 | 10 | 158 | 1.6 | 3.2 | 0.00 | 0.00 | 0.00 | 85 | 1012.3 |
| 20260509141653 | 10 | 157 | 1.6 | 1.6 | 0.00 | 0.00 | 0.00 | 86 | 1012.4 |
| 20260509141150 | 9 | 140 | 0.0 | 4.8 | 0.00 | 0.00 | 0.00 | 86 | 1012.5 |
| 20260509140647 | 10 | 206 | 0.0 | 1.6 | 0.00 | 0.00 | 0.00 | 88 | 1012.7 |
| 20260509140145 | 9 | 179 | 1.6 | 6.4 | 0.00 | 0.00 | 0.00 | 87 | 1012.4 |
| 20260509135642 | 10 | 145 | 3.2 | 3.2 | 0.00 | 0.00 | 0.00 | 87 | 1012.5 |
| 20260509135140 | 10 | 218 | 1.6 | 3.2 | 0.00 | 0.00 | 0.00 | 87 | 1012.6 |
| 20260509134636 | 10 | 140 | 3.2 | 4.8 | 0.00 | 0.00 | 0.00 | 87 | 1012.6 |
| 20260509134133 | 10 | 155 | 0.0 | 1.6 | 0.00 | 0.00 | 0.00 | 86 | 1012.5 |
| 20260509133631 | 10 | 221 | 0.0 | 0.0 | 0.00 | 0.00 | 0.00 | 86 | 1012.3 |
| 20260509133128 | 10 | 198 | 0.0 | 0.0 | 0.00 | 0.00 | 0.00 | 87 | 1012.4 |
| 20260509132626 | 10 | 159 | 0.0 | 0.0 | 0.00 | 0.00 | 0.00 | 85 | 1012.3 |
| 20260509132124 | 10 | 201 | 0.0 | 0.0 | 0.00 | 0.00 | 0.00 | 87 | 1012.5 |
| 20260509131620 | 10 | 219 | 0.0 | 0.0 | 0.00 | 0.00 | 0.00 | 88 | 1012.3 |
| 20260509131117 | 9 | 208 | 0.0 | 0.0 | 0.00 | 0.00 | 0.00 | 90 | 1012.5 |
| 20260509130613 | 9 | 213 | 0.0 | 0.0 | 0.00 | 0.00 | 0.00 | 91 | 1012.6 |
| 20260509130110 | 9 | 244 | 0.0 | 0.0 | 0.00 | 0.00 | 0.00 | 92 | 1012.5 |
| 20260509125606 | 8 | 224 | 0.0 | 0.0 | 0.00 | 0.00 | 0.00 | 93 | 1012.5 |
| 20260509125102 | 8 | 217 | 0.0 | 0.0 | 0.00 | 0.00 | 0.00 | 92 | 1012.6 |
| 20260509124559 | 8 | 216 | 0.0 | 0.0 | 0.00 | 0.00 | 0.00 | 93 | 1012.6 |
| 20260509124056 | 8 | 134 | 0.0 | 0.0 | 0.00 | 0.00 | 0.00 | 93 | 1012.4 |
| 20260509123554 | 8 | 102 | 0.0 | 0.0 | 0.00 | 0.00 | 0.00 | 93 | 1012.3 |
| 20260509123051 | 8 | 103 | 0.0 | 0.0 | 0.00 | 0.00 | 0.00 | 93 | 1012.4 |
| 20260509122547 | 8 | 102 | 0.0 | 0.0 | 0.00 | 0.00 | 0.00 | 93 | 1012.4 |
| 20260509122044 | 8 | 104 | 0.0 | 0.0 | 0.00 | 0.00 | 0.00 | 92 | 1012.4 |
| 20260509121540 | 8 | 200 | 0.0 | 0.0 | 0.00 | 0.00 | 0.00 | 94 | 1012.7 |
| 20260509121038 | 8 | 199 | 0.0 | 0.0 | 0.00 | 0.00 | 0.00 | 94 | 1012.8 |
| 20260509120536 | 8 | 200 | 0.0 | 0.0 | 0.00 | 0.00 | 0.00 | 93 | 1012.8 |
| 20260509120034 | 8 | 174 | 0.0 | 0.0 | 0.00 | 0.00 | 0.00 | 93 | 1012.7 |
| 20260509115531 | 8 | 207 | 0.0 | 1.6 | 0.00 | 0.00 | 0.00 | 92 | 1012.8 |
| 20260509115029 | 8 | 179 | 0.0 | 3.2 | 0.00 | 0.00 | 0.00 | 93 | 1012.5 |
| 20260509114527 | 8 | 162 | 0.0 | 0.0 | 0.00 | 0.00 | 0.00 | 94 | 1012.7 |
| 20260509114026 | 8 | 172 | 0.0 | 0.0 | 0.00 | 0.00 | 0.00 | 95 | 1012.7 |
| 20260509113523 | 8 | 172 | 0.0 | 0.0 | 0.00 | 0.00 | 0.00 | 94 | 1012.6 |
| 20260509113021 | 8 | 207 | 0.0 | 0.0 | 0.00 | 0.00 | 0.00 | 94 | 1012.5 |
| 20260509112517 | 7 | 202 | 0.0 | 0.0 | 0.00 | 0.00 | 0.00 | 94 | 1012.7 |
| 20260509112014 | 7 | 208 | 0.0 | 0.0 | 0.00 | 0.00 | 0.00 | 94 | 1012.7 |
| 20260509111511 | 7 | 170 | 0.0 | 0.0 | 0.00 | 0.00 | 0.00 | 94 | 1012.6 |
| 20260509111008 | 7 | 171 | 0.0 | 0.0 | 0.00 | 0.00 | 0.00 | 94 | 1012.7 |
| 20260509110505 | 8 | 170 | 0.0 | 0.0 | 0.00 | 0.00 | 0.00 | 94 | 1012.6 |
| 20260509110002 | 8 | 170 | 0.0 | 0.0 | 0.00 | 0.00 | 0.00 | 94 | 1012.5 |
| 20260509105500 | 8 | 171 | 0.0 | 1.6 | 0.00 | 0.00 | 0.00 | 94 | 1012.5 |
| 20260509104957 | 8 | 220 | 0.0 | 0.0 | 0.00 | 0.00 | 0.00 | 93 | 1012.6 |
| 20260509104454 | 8 | 212 | 0.0 | 0.0 | 0.00 | 0.00 | 0.00 | 93 | 1012.5 |
| 20260509103951 | 8 | 216 | 0.0 | 0.0 | 0.00 | 0.00 | 0.00 | 92 | 1012.6 |
| 20260509103449 | 8 | 8 | 0.0 | 0.0 | 0.00 | 0.00 | 0.00 | 90 | 1012.6 |
| 20260509102947 | 8 | 241 | 0.0 | 0.0 | 0.00 | 0.00 | 0.00 | 90 | 1012.5 |
| 20260509102444 | 8 | 237 | 0.0 | 0.0 | 0.00 | 0.00 | 0.00 | 88 | 1012.4 |
| 20260509101940 | 8 | 237 | 0.0 | 0.0 | 0.00 | 0.00 | 0.00 | 88 | 1012.4 |
| 20260509101436 | 8 | 238 | 0.0 | 3.2 | 0.00 | 0.00 | 0.00 | 87 | 1012.5 |
| 20260509100934 | 8 | 108 | 0.0 | 0.0 | 0.00 | 0.00 | 0.00 | 86 | 1012.5 |
| 20260509100431 | 8 | 271 | 1.6 | 1.6 | 0.00 | 0.00 | 0.00 | 86 | 1012.5 |
| 20260509095927 | 8 | 152 | 0.0 | 0.0 | 0.00 | 0.00 | 0.00 | 85 | 1012.8 |
| 20260509095425 | 8 | 83 | 1.6 | 3.2 | 0.00 | 0.00 | 0.00 | 83 | 1012.7 |
| 20260509094922 | 8 | 91 | 1.6 | 3.2 | 0.00 | 0.00 | 0.00 | 82 | 1012.6 |
| 20260509094418 | 9 | 163 | 1.6 | 4.8 | 0.00 | 0.00 | 0.00 | 81 | 1012.5 |
| 20260509093916 | 8 | 154 | 0.0 | 0.0 | 0.00 | 0.00 | 0.00 | 82 | 1012.8 |
| 20260509093413 | 8 | 20 | 0.0 | 0.0 | 0.00 | 0.00 | 0.00 | 81 | 1012.7 |
| 20260509092912 | 9 | 191 | 0.0 | 0.0 | 0.00 | 0.00 | 0.00 | 80 | 1012.6 |
| 20260509092409 | 9 | 148 | 0.0 | 0.0 | 0.00 | 0.00 | 0.00 | 79 | 1012.4 |
| 20260509091907 | 9 | 241 | 0.0 | 3.2 | 0.00 | 0.00 | 0.00 | 77 | 1012.5 |
| 20260509091404 | 9 | 321 | 0.0 | 3.2 | 0.00 | 0.00 | 0.00 | 76 | 1012.6 |
| 20260509090901 | 9 | 91 | 3.2 | 4.8 | 0.00 | 0.00 | 0.00 | 77 | 1012.5 |
| 20260509090358 | 9 | 225 | 3.2 | 6.4 | 0.00 | 0.00 | 0.00 | 78 | 1012.4 |
| 20260509085856 | 9 | 149 | 0.0 | 1.6 | 0.00 | 0.00 | 0.00 | 77 | 1012.4 |
| 20260509085353 | 9 | 150 | 1.6 | 1.6 | 0.00 | 0.00 | 0.00 | 76 | 1012.5 |
| 20260509084849 | 9 | 149 | 0.0 | 1.6 | 0.00 | 0.00 | 0.00 | 76 | 1012.6 |
| 20260509084346 | 9 | 148 | 1.6 | 1.6 | 0.00 | 0.00 | 0.00 | 76 | 1012.5 |
| 20260509083844 | 9 | 122 | 0.0 | 0.0 | 0.00 | 0.00 | 0.00 | 75 | 1012.6 |
| 20260509083340 | 9 | 158 | 0.0 | 0.0 | 0.00 | 0.00 | 0.00 | 75 | 1012.6 |
| 20260509082837 | 9 | 95 | 0.0 | 0.0 | 0.00 | 0.00 | 0.00 | 74 | 1012.6 |
| 20260509082333 | 9 | 86 | 0.0 | 0.0 | 0.00 | 0.00 | 0.00 | 75 | 1012.5 |
| 20260509081831 | 9 | 105 | 1.6 | 3.2 | 0.00 | 0.00 | 0.00 | 75 | 1012.7 |
| 20260509081328 | 9 | 89 | 0.0 | 0.0 | 0.00 | 0.00 | 0.00 | 77 | 1012.7 |
| 20260509080826 | 9 | 104 | 0.0 | 0.0 | 0.00 | 0.00 | 0.00 | 75 | 1012.7 |
| 20260509080323 | 9 | 104 | 0.0 | 0.0 | 0.00 | 0.00 | 0.00 | 75 | 1012.6 |
| 20260509075821 | 9 | 130 | 0.0 | 0.0 | 0.00 | 0.00 | 0.00 | 75 | 1012.5 |
| 20260509075318 | 9 | 86 | 0.0 | 0.0 | 0.00 | 0.00 | 0.00 | 73 | 1012.6 |
| 20260509074815 | 9 | 86 | 0.0 | 0.0 | 0.00 | 0.00 | 0.00 | 73 | 1012.7 |
| 20260509074313 | 10 | 86 | 0.0 | 0.0 | 0.00 | 0.00 | 0.00 | 73 | 1012.4 |
| 20260509073809 | 10 | 89 | 0.0 | 0.0 | 0.00 | 0.00 | 0.00 | 72 | 1012.4 |
| 20260509073305 | 10 | 200 | 0.0 | 0.0 | 0.00 | 0.00 | 0.00 | 69 | 1012.5 |
| 20260509072802 | 10 | 169 | 1.6 | 1.6 | 0.00 | 0.00 | 0.00 | 69 | 1012.6 |
| 20260509072259 | 10 | 179 | 1.6 | 1.6 | 0.00 | 0.00 | 0.00 | 67 | 1012.4 |
| 20260509071756 | 10 | 177 | 1.6 | 3.2 | 0.00 | 0.00 | 0.00 | 66 | 1012.3 |
| 20260509071253 | 10 | 198 | 3.2 | 4.8 | 0.00 | 0.00 | 0.00 | 65 | 1012.4 |
| 20260509070749 | 11 | 226 | 0.0 | 1.6 | 0.00 | 0.00 | 0.00 | 63 | 1012.4 |
| 20260509070246 | 11 | 247 | 1.6 | 1.6 | 0.00 | 0.00 | 0.00 | 63 | 1012.3 |
| 20260509065742 | 11 | 234 | 1.6 | 4.8 | 0.00 | 0.00 | 0.00 | 57 | 1012.6 |
| 20260509065239 | 11 | 209 | 6.4 | 11.3 | 0.00 | 0.00 | 0.00 | 56 | 1012.3 |
| 20260509064735 | 11 | 185 | 4.8 | 6.4 | 0.00 | 0.00 | 0.00 | 56 | 1012.3 |
| 20260509064233 | 11 | 154 | 4.8 | 6.4 | 0.00 | 0.00 | 0.00 | 55 | 1012.4 |
| 20260509063730 | 11 | 136 | 4.8 | 4.8 | 0.00 | 0.00 | 0.00 | 56 | 1012.1 |
| 20260509063226 | 11 | 195 | 3.2 | 6.4 | 0.00 | 0.00 | 0.00 | 59 | 1012.0 |
| 20260509062724 | 11 | 184 | 3.2 | 4.8 | 0.00 | 0.00 | 0.00 | 58 | 1012.3 |
| 20260509062221 | 11 | 166 | 4.8 | 9.7 | 0.00 | 0.00 | 0.00 | 55 | 1012.4 |
| 20260509061718 | 11 | 219 | 1.6 | 11.3 | 0.00 | 0.00 | 0.00 | 56 | 1012.4 |
| 20260509061215 | 11 | 190 | 1.6 | 3.2 | 0.00 | 0.00 | 0.00 | 58 | 1012.6 |
| 20260509060713 | 11 | 184 | 1.6 | 3.2 | 0.00 | 0.00 | 0.00 | 58 | 1012.6 |
| 20260509060209 | 11 | 194 | 1.6 | 3.2 | 0.00 | 0.00 | 0.00 | 57 | 1012.3 |
| 20260509055704 | 11 | 270 | 1.6 | 1.6 | 0.00 | 0.00 | 0.00 | 57 | 1012.5 |
| 20260509055200 | 11 | 224 | 0.0 | 1.6 | 0.00 | 0.00 | 0.00 | 58 | 1012.7 |
| 20260509054657 | 11 | 242 | 1.6 | 1.6 | 0.00 | 0.00 | 0.00 | 57 | 1012.8 |
| 20260509054155 | 11 | 214 | 1.6 | 3.2 | 0.00 | 0.00 | 0.00 | 58 | 1012.8 |
| 20260509053653 | 11 | 139 | 0.0 | 3.2 | 0.00 | 0.00 | 0.00 | 58 | 1012.8 |
| 20260509053149 | 11 | 217 | 0.0 | 0.0 | 0.00 | 0.00 | 0.00 | 57 | 1012.7 |
| 20260509052647 | 11 | 244 | 1.6 | 6.4 | 0.00 | 0.00 | 0.00 | 58 | 1012.6 |
| 20260509052145 | 11 | 201 | 1.6 | 3.2 | 0.00 | 0.00 | 0.00 | 60 | 1013.0 |
| 20260509051642 | 11 | 133 | 0.0 | 3.2 | 0.00 | 0.00 | 0.00 | 61 | 1012.9 |
| 20260509051139 | 11 | 212 | 0.0 | 1.6 | 0.00 | 0.00 | 0.00 | 58 | 1013.1 |
| 20260509050637 | 11 | 189 | 0.0 | 1.6 | 0.00 | 0.00 | 0.00 | 59 | 1013.2 |
| 20260509050133 | 11 | 190 | 1.6 | 1.6 | 0.00 | 0.00 | 0.00 | 61 | 1013.2 |
| 20260509045631 | 11 | 194 | 1.6 | 1.6 | 0.00 | 0.00 | 0.00 | 61 | 1012.9 |